N5KR Weather Reports


Display with metric or nautical units.
time (UTC)temp
F
wind
direction
speed
MPH
gust
MPH
rain 1hr
in
rain 24hr
in
rain mn
in
humidity
%
barometer
mb
20260502220005 76 278 2.0 13.0 0.00 0.01 0.00 34 1019.6
20260502215506 76 153 1.0 7.0 0.00 0.01 0.00 33 1019.7
20260502214505 77 224 3.0 7.0 0.00 0.01 0.00 34 1019.9
20260502214006 76 310 0.0 5.0 0.00 0.01 0.00 33 1020.0
20260502213005 77 341 4.0 14.0 0.00 0.01 0.00 32 1020.0
20260502211505 77 302 5.0 12.0 0.00 0.01 0.00 33 1020.2
20260502211006 77 320 3.0 13.0 0.00 0.01 0.00 31 1020.3
20260502210505 76 356 4.0 13.0 0.00 0.01 0.00 33 1020.4
20260502210005 76 36 2.0 6.0 0.00 0.01 0.00 31 1020.5
20260502205505 76 6 3.0 8.0 0.00 0.01 0.00 31 1020.4
20260502205005 77 355 5.0 10.0 0.00 0.01 0.00 30 1020.5
20260502204005 76 258 5.0 12.0 0.00 0.01 0.00 33 1020.6
20260502203506 75 24 2.0 9.0 0.00 0.01 0.00 33 1020.6
20260502203005 77 355 4.0 9.0 0.00 0.01 0.00 32 1020.8
20260502202505 77 4 3.0 12.0 0.00 0.01 0.00 32 1020.8
20260502202005 76 12 2.0 10.0 0.00 0.01 0.00 33 1020.8
20260502201505 76 0 3.0 9.0 0.00 0.01 0.00 32 1020.8
20260502201005 76 300 2.0 7.0 0.00 0.01 0.00 32 1020.9
20260502200005 77 324 4.0 8.0 0.00 0.01 0.00 32 1021.0
20260502195505 76 92 3.0 7.0 0.00 0.01 0.00 34 1021.0
20260502195005 76 358 5.0 10.0 0.00 0.01 0.00 34 1021.0
20260502194505 75 258 3.0 7.0 0.00 0.01 0.00 34 1021.1
20260502194005 75 248 5.0 9.0 0.00 0.01 0.00 33 1021.2
20260502193505 75 70 3.0 6.0 0.00 0.01 0.00 33 1021.3
20260502193005 75 54 4.0 10.0 0.00 0.01 0.00 34 1021.3
20260502192505 75 263 2.0 8.0 0.00 0.01 0.00 39 1021.3
20260502192005 75 259 1.0 9.0 0.00 0.01 0.00 34 1021.3
20260502191505 75 356 3.0 7.0 0.00 0.01 0.00 34 1021.3
20260502191005 75 60 3.0 12.0 0.00 0.01 0.00 34 1021.4
20260502190505 74 93 5.0 12.0 0.00 0.01 0.00 36 1021.4
20260502190005 74 10 3.0 9.0 0.00 0.01 0.00 37 1021.6
20260502185505 74 327 3.0 8.0 0.00 0.01 0.00 35 1021.6
20260502185005 74 3 3.0 9.0 0.00 0.01 0.00 34 1021.8
20260502184505 74 19 5.0 10.0 0.00 0.01 0.00 34 1021.8
20260502184005 74 5 4.0 8.0 0.00 0.01 0.00 33 1021.9
20260502183504 74 10 3.0 9.0 0.00 0.01 0.00 37 1021.9
20260502183005 74 330 3.0 7.0 0.00 0.01 0.00 35 1022.0
20260502182505 74 354 3.0 9.0 0.00 0.01 0.00 33 1022.0
20260502182005 73 266 2.0 9.0 0.00 0.01 0.00 34 1022.1
20260502181504 73 291 4.0 9.0 0.00 0.01 0.00 34 1022.2
20260502180505 74 58 2.0 5.0 0.00 0.01 0.00 32 1022.3
20260502170504 72 62 3.0 6.0 0.00 0.01 0.00 34 1023.0
20260502164005 70 19 2.0 6.0 0.00 0.01 0.00 37 1022.9
20260502163505 70 342 2.0 3.0 0.00 0.01 0.00 37 1022.8
20260502163004 70 350 3.0 9.0 0.00 0.01 0.00 36 1022.9
20260502162505 70 343 2.0 9.0 0.00 0.01 0.00 38 1022.8
20260502162005 70 1 3.0 7.0 0.00 0.01 0.00 37 1022.7
20260502161505 70 303 2.0 6.0 0.00 0.01 0.00 39 1022.7
20260502161004 70 316 0.0 5.0 0.00 0.01 0.00 40 1022.7
20260502160505 69 322 2.0 7.0 0.00 0.01 0.00 38 1022.7
20260502152005 67 74 2.0 6.0 0.00 0.01 0.00 47 1022.6
20260502151505 67 5 3.0 7.0 0.00 0.01 0.00 46 1022.6
20260502151005 66 16 2.0 6.0 0.00 0.01 0.00 47 1022.5
20260502150505 66 313 2.0 7.0 0.00 0.01 0.00 49 1022.5
20260502130504 56 345 1.0 3.0 0.00 0.01 0.00 75 1021.7
20260502123504 53 333 1.0 3.0 0.00 0.01 0.00 84 1021.1
20260502123004 52 234 0.0 0.0 0.00 0.01 0.00 86 1021.0
20260502122504 52 182 0.0 0.0 0.00 0.01 0.00 87 1020.9
20260502122004 51 182 0.0 0.0 0.00 0.01 0.00 89 1020.8
20260502121504 51 182 0.0 0.0 0.00 0.01 0.00 89 1020.7
20260502121004 51 182 0.0 0.0 0.00 0.01 0.00 89 1020.7
20260502120505 51 182 0.0 0.0 0.00 0.01 0.00 89 1020.7
20260502115504 51 182 0.0 0.0 0.00 0.01 0.00 89 1020.5
20260502114504 51 182 0.0 0.0 0.00 0.01 0.00 89 1020.4
20260502114004 51 182 0.0 0.0 0.00 0.01 0.00 89 1020.3
20260502113504 51 182 0.0 0.0 0.00 0.01 0.00 89 1020.3
20260502113004 51 182 0.0 0.0 0.00 0.01 0.00 89 1020.3
20260502112504 51 182 0.0 0.0 0.00 0.01 0.00 89 1020.1
20260502112004 51 182 0.0 0.0 0.00 0.01 0.00 89 1020.2
20260502111504 51 182 0.0 0.0 0.00 0.01 0.00 89 1020.1
20260502111004 51 182 0.0 0.0 0.00 0.01 0.00 88 1020.1
20260502110504 51 182 0.0 0.0 0.00 0.01 0.00 88 1020.0
20260502110004 51 182 0.0 0.0 0.00 0.01 0.00 88 1019.9
20260502105504 51 182 0.0 0.0 0.00 0.01 0.00 88 1020.0
20260502105004 51 182 0.0 0.0 0.00 0.01 0.00 88 1020.0
20260502104504 52 182 0.0 0.0 0.00 0.01 0.00 88 1019.9
20260502104004 51 182 0.0 0.0 0.00 0.01 0.00 88 1019.8
20260502103504 51 182 0.0 0.0 0.00 0.01 0.00 88 1019.6
20260502103004 51 182 0.0 0.0 0.00 0.01 0.00 88 1019.6
20260502102504 51 182 0.0 0.0 0.00 0.01 0.00 87 1019.5
20260502102004 52 182 0.0 0.0 0.00 0.01 0.00 87 1019.4
20260502101504 52 182 0.0 0.0 0.00 0.01 0.00 87 1019.5
20260502101004 52 182 0.0 0.0 0.00 0.01 0.00 86 1019.5
20260502100504 52 182 0.0 0.0 0.00 0.01 0.00 86 1019.6
20260502091504 52 182 0.0 0.0 0.00 0.01 0.00 86 1019.4
20260502090504 52 182 0.0 0.0 0.00 0.01 0.00 86 1019.4
20260502071506 54 182 0.0 0.0 0.00 0.01 0.00 81 1019.5
20260502071006 54 182 0.0 0.0 0.00 0.01 0.00 81 1019.4
20260502070506 54 182 0.0 0.0 0.00 0.01 0.00 81 1019.5
20260502070007 54 182 0.0 0.0 0.00 0.01 0.00 81 1019.5
20260502064506 55 182 0.0 0.0 0.00 0.01 0.00 80 1019.7
20260502063007 55 182 0.0 0.0 0.00 0.01 0.00 81 1019.8
20260502062507 55 182 0.0 0.0 0.00 0.01 0.00 81 1019.6
20260502061007 54 182 0.0 0.0 0.00 0.01 0.00 82 1019.5
20260502055007 55 182 0.0 0.0 0.00 0.01 0.00 80 1019.6
20260502054506 55 182 0.0 0.0 0.00 0.01 0.00 81 1019.5
20260502054006 55 182 0.0 0.0 0.00 0.01 0.00 80 1019.6
20260502053507 55 182 0.0 0.0 0.00 0.01 0.00 81 1019.5
20260502053006 55 182 0.0 0.0 0.00 0.01 0.00 82 1019.5
20260502052506 55 181 0.0 0.0 0.00 0.01 0.00 82 1019.5
20260502052006 55 143 0.0 0.0 0.00 0.01 0.00 81 1019.5
20260502051507 55 142 0.0 0.0 0.00 0.01 0.00 81 1019.6
20260502050506 56 142 0.0 0.0 0.00 0.01 0.00 79 1019.7
20260502050006 56 142 0.0 0.0 0.00 0.01 0.00 79 1019.6
20260502045006 56 142 0.0 0.0 0.00 0.01 0.01 79 1019.5
20260502044006 56 142 0.0 0.0 0.00 0.01 0.01 79 1019.5
20260502043506 56 142 0.0 0.0 0.00 0.01 0.01 78 1019.5
20260502043006 57 142 0.0 0.0 0.00 0.01 0.01 77 1019.5
20260502042506 57 142 0.0 0.0 0.00 0.01 0.01 77 1019.5
20260502042006 57 142 0.0 0.0 0.00 0.01 0.01 76 1019.4
20260502041506 57 142 0.0 0.0 0.00 0.01 0.01 76 1019.4
20260502040506 57 142 0.0 0.0 0.00 0.01 0.01 76 1019.3
20260502040006 57 142 0.0 0.0 0.00 0.01 0.01 75 1019.3
20260502035506 58 142 0.0 0.0 0.00 0.01 0.01 74 1019.3
20260502034506 58 142 0.0 0.0 0.00 0.01 0.01 74 1019.4
20260502033506 58 142 0.0 0.0 0.00 0.01 0.01 74 1019.4
20260502033006 58 142 0.0 0.0 0.00 0.01 0.01 73 1019.3
20260502032506 59 142 0.0 0.0 0.00 0.01 0.01 73 1019.3
20260502032006 59 142 0.0 0.0 0.00 0.01 0.01 73 1019.2
20260502031006 59 142 0.0 0.0 0.00 0.01 0.01 72 1019.2
20260502030506 59 142 0.0 0.0 0.00 0.01 0.01 71 1019.1
20260502030006 59 142 0.0 0.0 0.00 0.01 0.01 71 1018.9
20260502025505 60 142 0.0 0.0 0.00 0.01 0.01 70 1018.8
20260502025006 60 142 0.0 0.0 0.00 0.01 0.01 70 1018.8
20260502024506 60 142 0.0 0.0 0.00 0.01 0.01 69 1019.0
20260502024006 60 142 0.0 0.0 0.00 0.01 0.01 69 1018.9
20260502023506 61 142 0.0 0.0 0.00 0.01 0.01 67 1018.9
20260502023006 61 142 0.0 0.0 0.00 0.01 0.01 68 1018.9
20260502022506 61 142 0.0 0.0 0.00 0.01 0.01 67 1018.7
20260502021006 61 142 0.0 0.0 0.00 0.01 0.01 65 1018.5
20260502020511 61 142 0.0 0.0 0.00 0.01 0.01 65 1018.4
20260502020005 61 142 0.0 0.0 0.00 0.01 0.01 65 1018.3
20260502015506 61 142 0.0 0.0 0.00 0.01 0.01 65 1018.2
20260502015006 61 142 0.0 0.0 0.00 0.01 0.01 65 1018.2
20260502014506 62 136 0.0 0.0 0.00 0.01 0.01 64 1018.0
20260502014006 62 136 0.0 0.0 0.00 0.01 0.01 64 1017.9
20260502013505 62 136 0.0 0.0 0.00 0.01 0.01 64 1017.7
20260502013006 62 136 0.0 0.0 0.00 0.01 0.01 64 1017.6
20260502012506 62 137 0.0 0.0 0.00 0.01 0.01 64 1017.5
20260502011506 62 137 0.0 0.0 0.00 0.01 0.01 63 1017.4
20260502011006 62 137 0.0 0.0 0.00 0.01 0.01 62 1017.3
20260502010005 63 137 1.0 5.0 0.00 0.01 0.01 62 1017.3
20260502005505 63 137 0.0 2.0 0.00 0.01 0.01 62 1017.1
20260502005006 63 137 0.0 6.0 0.00 0.01 0.01 61 1017.0
20260502004506 63 153 2.0 6.0 0.00 0.01 0.01 61 1016.9
20260502004006 63 136 1.0 2.0 0.00 0.01 0.01 61 1016.9
20260502003506 63 136 2.0 5.0 0.00 0.01 0.01 61 1016.8
20260502003006 63 132 0.0 0.0 0.00 0.01 0.01 61 1016.7
20260502002506 63 132 0.0 0.0 0.00 0.01 0.01 61 1016.7
20260502002006 63 132 0.0 5.0 0.00 0.01 0.01 60 1016.5
20260502001506 63 132 3.0 6.0 0.00 0.01 0.01 59 1016.5
20260502001006 63 167 3.0 6.0 0.00 0.01 0.01 59 1016.3
20260502000505 64 142 3.0 6.0 0.00 0.01 0.01 59 1016.3
20260502000005 64 158 0.0 0.0 0.00 0.01 0.01 59 1016.2
20260501235505 64 158 0.0 0.0 0.00 0.01 0.01 59 1016.2
20260501235006 64 158 0.0 0.0 0.00 0.01 0.01 59 1016.1
20260501234506 64 158 0.0 0.0 0.00 0.01 0.01 58 1016.1
20260501234006 64 158 0.0 0.0 0.00 0.01 0.01 58 1016.0
20260501233006 64 158 2.0 3.0 0.00 0.01 0.01 57 1016.0
20260501232505 64 158 2.0 6.0 0.00 0.01 0.01 58 1015.9
20260501232005 64 159 3.0 6.0 0.00 0.01 0.01 57 1015.7
20260501231506 64 134 2.0 5.0 0.01 0.01 0.01 57 1015.7
20260501231005 64 140 3.0 7.0 0.01 0.01 0.01 57 1015.7
20260501225506 64 131 1.0 5.0 0.01 0.01 0.01 57 1015.6
20260501225006 64 72 2.0 6.0 0.01 0.01 0.01 56 1015.6
20260501224506 65 90 3.0 7.0 0.01 0.01 0.01 56 1015.6
20260501224006 65 100 3.0 8.0 0.01 0.01 0.01 55 1015.6
20260501223006 65 68 3.0 9.0 0.01 0.01 0.01 55 1015.6
20260501222505 65 99 3.0 8.0 0.01 0.01 0.01 55 1015.7
20260501222005 65 132 3.0 9.0 0.01 0.01 0.01 55 1015.6
20260501221505 65 60 3.0 10.0 0.00 0.00 0.00 55 1015.6
20260501220505 65 79 5.0 10.0 0.00 0.00 0.00 55 1015.7